BMCB-27 Weather Reports


Display with metric or nautical units.
time (UTC)temp
F
wind
direction
speed
MPH
gust
MPH
rain 1hr
in
rain 24hr
in
rain mn
in
humidity
%
barometer
mb
20260507080303 50 0 0.0 0.0 0.00 0.04 0.00 83 1014.1
20260507075737 50 0 0.0 0.0 0.00 0.04 0.00 83 1014.2
20260507073442 50 0 0.0 0.0 0.00 0.04 0.00 84 1014.0
20260507071255 49 0 0.0 0.0 0.00 0.04 0.00 87 1013.9
20260507063734 48 0 0.0 0.0 0.00 0.06 0.00 90 1013.8
20260507063059 48 0 0.0 0.0 0.00 0.06 0.00 93 1013.7
20260507061906 47 0 0.0 0.0 0.00 0.07 0.00 94 1013.6
20260507060421 47 0 0.0 0.0 0.00 0.07 0.00 95 1013.5
20260507055645 47 0 0.0 0.0 0.00 0.07 0.00 95 1013.5
20260507053314 46 0 0.0 0.0 0.00 0.09 0.00 97 1013.3
20260507051948 46 0 0.0 0.0 0.00 0.10 0.00 98 1013.1
20260507050133 45 0 0.0 0.0 0.00 0.11 0.00 98 1013.0
20260507044516 45 0 0.0 0.0 0.00 0.13 0.00 99 1012.8
20260507041347 45 0 0.0 0.0 0.00 0.16 0.00 98 1012.6
20260507040637 45 0 0.0 0.0 0.00 0.17 0.00 98 1012.5
20260507035049 45 0 0.0 0.0 0.00 0.17 0.00 98 1012.4
20260507033738 45 0 0.0 0.0 0.00 0.17 0.00 98 1012.4
20260507032242 45 0 0.0 0.0 0.00 0.17 0.00 97 1012.3
20260507030449 45 0 0.0 0.0 0.00 0.18 0.00 97 1012.3
20260507025924 45 0 0.0 0.0 0.00 0.19 0.00 97 1012.3
20260507024809 45 0 0.0 0.0 0.00 0.20 0.00 96 1012.2
20260507023137 45 0 0.0 0.0 0.00 0.20 0.00 95 1012.2
20260507022055 45 0 0.0 0.0 0.00 0.20 0.00 95 1012.1
20260507015406 46 0 0.0 0.0 0.00 0.20 0.00 95 1011.9
20260507014204 46 0 0.0 0.0 0.00 0.21 0.00 96 1011.8
20260507013418 46 0 0.0 0.0 0.00 0.22 0.00 96 1011.8
20260507012842 46 0 0.0 0.0 0.00 0.22 0.00 96 1011.9
20260507012316 46 0 0.0 0.0 0.00 0.22 0.00 96 1012.0
20260507010919 46 0 0.0 0.0 0.00 0.24 0.00 97 1011.8
20260507010355 46 0 0.0 0.0 0.00 0.24 0.00 97 1011.8
20260507004151 46 0 0.0 0.0 0.00 0.25 0.00 98 1011.8
20260507002729 46 0 0.0 0.0 0.00 0.27 0.00 98 1011.7
20260507002228 46 0 0.0 0.0 0.00 0.27 0.00 98 1011.7
20260506233108 46 0 0.0 0.0 0.00 0.32 0.00 98 1011.5
20260506231737 45 0 0.0 0.0 0.00 0.32 0.00 98 1011.4
20260506224721 44 0 0.0 0.0 0.00 0.35 0.00 97 1011.3
20260506222754 44 0 0.0 0.0 0.00 0.37 0.00 96 1011.2
20260506222101 44 0 0.0 0.0 0.00 0.37 0.00 96 1011.1
20260506221226 43 0 0.0 0.0 0.00 0.39 0.00 95 1011.0
20260506213433 44 0 0.0 0.0 0.00 0.41 0.39 92 1010.8
20260506212256 44 0 0.0 0.0 0.00 0.43 0.39 91 1010.6
20260506211057 45 0 0.0 0.0 0.00 0.43 0.39 91 1010.5
20260506210148 45 0 0.0 0.0 0.00 0.43 0.39 91 1010.5
20260506203756 45 0 0.0 0.0 0.00 0.44 0.39 89 1010.2
20260506203010 46 0 0.0 0.0 0.00 0.44 0.39 89 1010.2
20260506202334 46 0 0.0 0.0 0.00 0.44 0.39 88 1010.2
20260506192118 49 0 0.0 0.0 0.00 0.47 0.39 84 1009.5
20260506185834 50 0 0.0 0.0 0.00 0.48 0.39 85 1009.2
20260506183003 51 0 0.0 0.0 0.00 0.50 0.39 84 1008.9
20260506181910 52 0 0.0 0.0 0.00 0.50 0.39 83 1008.7
20260506180535 52 0 0.0 0.0 0.00 0.51 0.39 89 1008.6
20260506175257 52 0 0.0 0.0 0.00 0.51 0.39 87 1008.4
20260506174142 52 0 0.0 0.0 0.00 0.52 0.39 87 1008.2
20260506172059 52 0 0.0 0.0 0.00 0.54 0.39 86 1008.1
20260506170318 52 0 0.0 0.0 0.00 0.54 0.39 85 1008.0
20260506165203 52 0 0.0 0.0 0.00 0.54 0.39 85 1007.9
20260506164221 52 0 0.0 0.0 0.00 0.54 0.39 82 1007.9
20260506163216 52 0 0.0 0.0 0.00 0.54 0.39 82 1007.9
20260506161950 52 0 0.0 0.0 0.00 0.54 0.39 80 1007.9
20260506161424 53 0 0.0 0.0 0.00 0.54 0.39 79 1007.9
20260506160159 53 0 0.0 0.0 0.00 0.54 0.39 80 1007.9
20260506154943 53 0 0.0 0.0 0.00 0.54 0.39 80 1007.8
20260506154100 53 0 0.0 0.0 0.00 0.54 0.39 81 1007.8
20260506153500 53 0 0.0 0.0 0.00 0.54 0.39 81 1007.8
20260506152410 53 0 0.0 0.0 0.00 0.54 0.39 80 1007.7
20260506151744 54 0 0.0 0.0 0.00 0.54 0.39 81 1007.6
20260506145908 54 0 0.0 0.0 0.00 0.54 0.39 83 1007.6
20260506144642 53 0 0.0 0.0 0.00 0.54 0.39 86 1007.7
20260506143931 53 0 0.0 0.0 0.00 0.54 0.39 86 1007.6
20260506143158 53 0 0.0 0.0 0.00 0.54 0.39 87 1007.7
20260506142116 53 0 0.0 0.0 0.00 0.54 0.39 87 1007.8
20260506141110 53 0 0.0 0.0 0.00 0.54 0.39 87 1007.8
20260506135209 52 0 0.0 0.0 0.00 0.54 0.39 88 1007.9
20260506134644 52 0 0.0 0.0 0.00 0.54 0.39 88 1007.9
20260506131538 51 0 0.0 0.0 0.00 0.54 0.39 90 1007.9
20260506130903 51 0 0.0 0.0 0.00 0.54 0.39 88 1007.8
20260506130117 51 0 0.0 0.0 0.00 0.54 0.39 86 1007.7
20260506125551 51 0 0.0 0.0 0.00 0.54 0.39 86 1007.7
20260506122154 52 0 0.0 0.0 0.00 0.54 0.39 89 1007.5
20260506120558 51 0 0.0 0.0 0.00 0.54 0.39 91 1007.4
20260506113517 50 0 0.0 0.0 0.00 0.54 0.39 94 1007.4
20260506112806 50 0 0.0 0.0 0.01 0.54 0.39 94 1007.4
20260506110932 49 0 0.0 0.0 0.01 0.54 0.39 96 1007.5
20260506105411 49 0 0.0 0.0 0.01 0.54 0.39 98 1007.6
20260506104810 49 0 0.0 0.0 0.01 0.54 0.39 97 1007.6
20260506102932 48 0 0.0 0.0 0.02 0.54 0.39 98 1007.7
20260506102431 48 0 0.0 0.0 0.02 0.54 0.39 98 1007.6
20260506101907 48 0 0.0 0.0 0.02 0.54 0.38 99 1007.6
20260506095831 47 0 0.0 0.0 0.02 0.54 0.38 99 1007.4
20260506094520 47 0 0.0 0.0 0.02 0.54 0.38 99 1007.3
20260506093108 47 0 0.0 0.0 0.02 0.54 0.38 99 1007.2
20260506092507 47 0 0.0 0.0 0.02 0.54 0.38 10 1007.1
20260506091645 47 0 0.0 0.0 0.02 0.53 0.37 10 1007.0
20260506090530 47 0 0.0 0.0 0.02 0.53 0.37 10 1007.0
20260506090057 47 0 0.0 0.0 0.02 0.52 0.36 10 1007.0
20260506084827 47 0 0.0 0.0 0.02 0.52 0.36 10 1006.8